Location: Unspecified
(0.0000°N, 0.0000°E)
Time: 17:16:47
(UTC+00:00)

Vanguard 3 - Pass Details

Date: 09 February 2023
Orbit: 509 x 3249 km, 33.3° (Epoch: 20 March)

Event Time Altitude Azimuth Distance (km) Brightness Sun altitude
Rises 13:52:16 0° 254° (WSW) 2,639 10.2 61.7°
Reaches altitude 10° 13:54:39 10° 267° (W) 1,710 9.4 61.2°
Maximum altitude 13:57:49 27° 328° (NNW) 1,023 8.1 60.5°
Drops below altitude 10° 14:01:26 10° 28° (NNE) 1,958 9.0 59.7°
Sets 14:04:22 0° 40° (NE) 3,121 9.9 59.1°
